Location: Hac?musa Deresi
(39.1694°N, 32.2508°E)
Time: 08:41:31
(UTC+00:00)

ASTEX 1 - Pass Details

Date: 22 April 2026
Orbit: 713 x 733 km, 92.7° (Epoch: 12 May)

Event Time Altitude Azimuth Distance (km) Brightness Sun altitude
Exits shadow 18:20:31 38° 134° (SE) 1,092 3.8 -19.2°
Maximum altitude 18:22:04 55° 80° (E) 873 3.5 -19.4°
Drops below altitude 10° 18:26:52 10° 4° (N) 2,234 6.3 -20.2°
Sets 18:29:13 0° 360° (N) 3,162 7.2 -20.5°
